| time (UTC) | temp F | wind direction | speed MPH | gust MPH | rain 1hr in | rain 24hr in | rain mn in | humidity % | barometer mb |
| 20260503221602 | 75 | 356 | 1.0 | 4.0 | 0.00 | 0.00 | 0.00 | 40 | 1018.2 |
| 20260503221059 | 75 | 318 | 0.0 | 4.0 | 0.00 | 0.00 | 0.00 | 41 | 1018.2 |
| 20260503220559 | 74 | 12 | 2.0 | 4.0 | 0.00 | 0.00 | 0.00 | 35 | 1018.2 |
| 20260503220059 | 75 | 59 | 1.0 | 3.0 | 0.00 | 0.00 | 0.00 | 41 | 1018.3 |
| 20260503215557 | 75 | 23 | 1.0 | 4.0 | 0.00 | 0.00 | 0.00 | 41 | 1018.4 |
| 20260503215058 | 75 | 334 | 1.0 | 4.0 | 0.00 | 0.00 | 0.00 | 40 | 1018.4 |
| 20260503214601 | 75 | 287 | 1.0 | 4.0 | 0.00 | 0.00 | 0.00 | 39 | 1018.4 |
| 20260503214100 | 75 | 313 | 1.0 | 4.0 | 0.00 | 0.00 | 0.00 | 39 | 1018.5 |
| 20260503213558 | 75 | 59 | 1.0 | 4.0 | 0.00 | 0.00 | 0.00 | 37 | 1018.5 |
| 20260503213108 | 75 | 2 | 1.0 | 4.0 | 0.00 | 0.00 | 0.00 | 39 | 1018.6 |
| 20260503212558 | 75 | 360 | 1.0 | 4.0 | 0.00 | 0.00 | 0.00 | 35 | 1018.6 |
| 20260503212058 | 75 | 328 | 1.0 | 3.0 | 0.00 | 0.00 | 0.00 | 41 | 1018.7 |
| 20260503211559 | 75 | 348 | 1.0 | 3.0 | 0.00 | 0.00 | 0.00 | 39 | 1018.8 |
| 20260503211057 | 75 | 11 | 1.0 | 5.0 | 0.00 | 0.00 | 0.00 | 42 | 1018.8 |
| 20260503210603 | 75 | 351 | 1.0 | 5.0 | 0.00 | 0.00 | 0.00 | 42 | 1018.9 |
| 20260503210112 | 74 | 0 | 1.0 | 5.0 | 0.00 | 0.00 | 0.00 | 41 | 1018.9 |
| 20260503205559 | 75 | 352 | 3.0 | 5.0 | 0.00 | 0.00 | 0.00 | 39 | 1018.9 |
| 20260503205059 | 75 | 55 | 0.0 | 9.0 | 0.00 | 0.00 | 0.00 | 44 | 1018.9 |
| 20260503204611 | 74 | 91 | 2.0 | 9.0 | 0.00 | 0.00 | 0.00 | 41 | 1019.0 |
| 20260503204058 | 74 | 273 | 3.0 | 9.0 | 0.00 | 0.00 | 0.00 | 39 | 1019.1 |
| 20260503203603 | 75 | 338 | 2.0 | 5.0 | 0.00 | 0.00 | 0.00 | 40 | 1019.0 |
| 20260503203106 | 75 | 309 | 2.0 | 6.0 | 0.00 | 0.00 | 0.00 | 40 | 1019.1 |
| 20260503202600 | 75 | 8 | 2.0 | 6.0 | 0.00 | 0.00 | 0.00 | 40 | 1019.1 |
| 20260503202058 | 74 | 354 | 2.0 | 6.0 | 0.00 | 0.00 | 0.00 | 43 | 1019.2 |
| 20260503201604 | 74 | 0 | 1.0 | 6.0 | 0.00 | 0.00 | 0.00 | 36 | 1019.4 |
| 20260503201058 | 74 | 246 | 2.0 | 5.0 | 0.00 | 0.00 | 0.00 | 39 | 1019.5 |
| 20260503200558 | 74 | 347 | 2.0 | 5.0 | 0.00 | 0.00 | 0.00 | 40 | 1019.5 |
| 20260503200101 | 74 | 312 | 3.0 | 8.0 | 0.00 | 0.00 | 0.00 | 37 | 1019.6 |
| 20260503195555 | 75 | 301 | 2.0 | 8.0 | 0.00 | 0.00 | 0.00 | 35 | 1019.7 |
| 20260503195057 | 75 | 269 | 1.0 | 8.0 | 0.00 | 0.00 | 0.00 | 40 | 1019.7 |
| 20260503194556 | 75 | 43 | 1.0 | 5.0 | 0.00 | 0.00 | 0.00 | 39 | 1019.8 |
| 20260503194058 | 75 | 15 | 1.0 | 4.0 | 0.00 | 0.00 | 0.00 | 44 | 1019.9 |
| 20260503193558 | 75 | 345 | 1.0 | 3.0 | 0.00 | 0.00 | 0.00 | 41 | 1020.1 |
| 20260503193102 | 74 | 30 | 1.0 | 6.0 | 0.00 | 0.00 | 0.00 | 43 | 1020.1 |
| 20260503192558 | 74 | 321 | 2.0 | 6.0 | 0.00 | 0.00 | 0.00 | 42 | 1020.2 |
| 20260503192057 | 74 | 293 | 2.0 | 5.0 | 0.00 | 0.00 | 0.00 | 40 | 1020.2 |
| 20260503191620 | 74 | 245 | 2.0 | 6.0 | 0.00 | 0.00 | 0.00 | 42 | 1020.2 |
| 20260503191055 | 74 | 356 | 2.0 | 6.0 | 0.00 | 0.00 | 0.00 | 44 | 1020.2 |
| 20260503190556 | 74 | 299 | 1.0 | 5.0 | 0.00 | 0.00 | 0.00 | 39 | 1020.3 |
| 20260503190056 | 73 | 321 | 2.0 | 8.0 | 0.00 | 0.00 | 0.00 | 41 | 1020.4 |
| 20260503185601 | 73 | 352 | 2.0 | 8.0 | 0.00 | 0.00 | 0.00 | 41 | 1020.5 |
| 20260503185057 | 73 | 11 | 3.0 | 8.0 | 0.00 | 0.00 | 0.00 | 41 | 1020.5 |
| 20260503184559 | 74 | 325 | 1.0 | 4.0 | 0.00 | 0.00 | 0.00 | 39 | 1020.6 |
| 20260503184103 | 74 | 40 | 1.0 | 6.0 | 0.00 | 0.00 | 0.00 | 39 | 1020.5 |
| 20260503183558 | 74 | 340 | 2.0 | 6.0 | 0.00 | 0.00 | 0.00 | 40 | 1020.6 |
| 20260503183112 | 74 | 357 | 1.0 | 4.0 | 0.00 | 0.00 | 0.00 | 39 | 1020.6 |
| 20260503182555 | 74 | 51 | 1.0 | 6.0 | 0.00 | 0.00 | 0.00 | 41 | 1020.5 |
| 20260503182057 | 74 | 341 | 2.0 | 6.0 | 0.00 | 0.00 | 0.00 | 39 | 1020.6 |
| 20260503181602 | 73 | 345 | 2.0 | 4.0 | 0.00 | 0.00 | 0.00 | 42 | 1020.5 |
| 20260503181058 | 73 | 40 | 1.0 | 4.0 | 0.00 | 0.00 | 0.00 | 44 | 1020.5 |
| 20260503180559 | 73 | 352 | 2.0 | 4.0 | 0.00 | 0.00 | 0.00 | 44 | 1020.6 |
| 20260503180056 | 73 | 45 | 1.0 | 4.0 | 0.00 | 0.00 | 0.00 | 40 | 1020.6 |
| 20260503175557 | 73 | 282 | 2.0 | 4.0 | 0.00 | 0.00 | 0.00 | 40 | 1020.7 |
| 20260503175056 | 72 | 298 | 2.0 | 4.0 | 0.00 | 0.00 | 0.00 | 41 | 1020.8 |
| 20260503174604 | 72 | 269 | 2.0 | 4.0 | 0.00 | 0.00 | 0.00 | 45 | 1021.0 |
| 20260503174057 | 72 | 331 | 1.0 | 5.0 | 0.00 | 0.00 | 0.00 | 46 | 1021.0 |
| 20260503173557 | 71 | 30 | 2.0 | 5.0 | 0.00 | 0.00 | 0.00 | 44 | 1021.0 |
| 20260503173117 | 71 | 0 | 1.0 | 5.0 | 0.00 | 0.00 | 0.00 | 44 | 1021.2 |
| 20260503172559 | 72 | 323 | 1.0 | 5.0 | 0.00 | 0.00 | 0.00 | 45 | 1021.4 |
| 20260503172057 | 71 | 35 | 2.0 | 4.0 | 0.00 | 0.00 | 0.00 | 43 | 1021.4 |
| 20260503171600 | 71 | 294 | 2.0 | 4.0 | 0.00 | 0.00 | 0.00 | 41 | 1021.4 |
| 20260503171058 | 71 | 117 | 2.0 | 4.0 | 0.00 | 0.00 | 0.00 | 43 | 1021.5 |
| 20260503170557 | 71 | 42 | 1.0 | 4.0 | 0.00 | 0.00 | 0.00 | 41 | 1021.7 |
| 20260503150601 | 65 | 106 | 0.0 | 2.0 | 0.00 | 0.00 | 0.00 | 56 | 1022.4 |
| 20260503131058 | 57 | 0 | 0.0 | 0.0 | 0.00 | 0.01 | 0.00 | 77 | 1021.3 |
| 20260503130558 | 56 | 0 | 0.0 | 0.0 | 0.00 | 0.01 | 0.00 | 83 | 1021.4 |
| 20260503120124 | 46 | 0 | 0.0 | 0.0 | 0.00 | 0.02 | 0.00 | 94 | 1021.3 |
| 20260503110558 | 44 | 0 | 0.0 | 0.0 | 0.00 | 0.03 | 0.00 | 96 | 1020.4 |
| 20260503100105 | 44 | 0 | 0.0 | 0.0 | 0.00 | 0.07 | 0.00 | 94 | 1019.8 |
| 20260503090105 | 45 | 0 | 0.0 | 0.0 | 0.00 | 0.10 | 0.00 | 94 | 1019.7 |
| 20260503081557 | 46 | 0 | 0.0 | 0.0 | 0.00 | 0.24 | 0.00 | 93 | 1019.5 |
| 20260503081057 | 46 | 0 | 0.0 | 0.0 | 0.00 | 0.24 | 0.00 | 93 | 1019.4 |
| 20260503080557 | 46 | 0 | 0.0 | 0.0 | 0.00 | 0.24 | 0.00 | 93 | 1019.3 |
| 20260503072557 | 47 | 0 | 0.0 | 0.0 | 0.00 | 0.36 | 0.00 | 92 | 1019.3 |
| 20260503072057 | 47 | 0 | 0.0 | 0.0 | 0.00 | 0.36 | 0.00 | 92 | 1019.3 |
| 20260503071611 | 47 | 0 | 0.0 | 0.0 | 0.00 | 0.36 | 0.00 | 91 | 1019.2 |
| 20260503071057 | 47 | 0 | 0.0 | 0.0 | 0.00 | 0.36 | 0.00 | 91 | 1019.0 |
| 20260503070557 | 47 | 0 | 0.0 | 0.0 | 0.00 | 0.36 | 0.00 | 91 | 1018.9 |
| 20260503070109 | 48 | 0 | 0.0 | 0.0 | 0.00 | 0.36 | 0.00 | 91 | 1018.9 |
| 20260503055057 | 49 | 0 | 0.0 | 0.0 | 0.00 | 0.51 | 0.00 | 84 | 1018.9 |
| 20260503054607 | 49 | 0 | 0.0 | 0.0 | 0.00 | 0.51 | 0.00 | 85 | 1018.8 |
| 20260503054057 | 49 | 0 | 0.0 | 0.0 | 0.00 | 0.51 | 0.00 | 86 | 1018.9 |
| 20260503053557 | 49 | 0 | 0.0 | 1.0 | 0.00 | 0.51 | 0.00 | 87 | 1018.9 |
| 20260503053055 | 49 | 0 | 0.0 | 1.0 | 0.00 | 0.51 | 0.00 | 87 | 1018.8 |
| 20260503052554 | 49 | 0 | 0.0 | 0.0 | 0.00 | 0.51 | 0.00 | 87 | 1018.9 |
| 20260503052057 | 49 | 0 | 0.0 | 0.0 | 0.00 | 0.51 | 0.00 | 91 | 1018.8 |
| 20260503051605 | 49 | 0 | 0.0 | 0.0 | 0.00 | 0.51 | 0.00 | 88 | 1018.8 |
| 20260503051057 | 49 | 0 | 0.0 | 0.0 | 0.00 | 0.51 | 0.00 | 88 | 1018.8 |
| 20260503050601 | 50 | 0 | 0.0 | 0.0 | 0.00 | 0.51 | 0.00 | 88 | 1018.7 |
| 20260503050100 | 50 | 0 | 0.0 | 0.0 | 0.00 | 0.51 | 0.00 | 88 | 1018.7 |
| 20260503045559 | 50 | 0 | 0.0 | 0.0 | 0.00 | 0.72 | 0.51 | 88 | 1018.7 |
| 20260503045055 | 50 | 0 | 0.0 | 0.0 | 0.00 | 0.72 | 0.51 | 91 | 1018.7 |
| 20260503044603 | 50 | 0 | 0.0 | 0.0 | 0.00 | 0.72 | 0.51 | 86 | 1018.7 |
| 20260503044056 | 51 | 0 | 0.0 | 0.0 | 0.00 | 0.72 | 0.51 | 86 | 1018.6 |
| 20260503043557 | 51 | 0 | 0.0 | 0.0 | 0.00 | 0.72 | 0.51 | 88 | 1018.6 |
| 20260503043101 | 51 | 0 | 0.0 | 1.0 | 0.00 | 0.72 | 0.51 | 85 | 1018.6 |
| 20260503042558 | 51 | 0 | 0.0 | 1.0 | 0.00 | 0.72 | 0.51 | 83 | 1018.6 |
| 20260503042058 | 51 | 0 | 0.0 | 0.0 | 0.00 | 0.72 | 0.51 | 85 | 1018.6 |
| 20260503041606 | 51 | 0 | 0.0 | 0.0 | 0.00 | 0.72 | 0.51 | 86 | 1018.5 |
| 20260503041054 | 51 | 0 | 0.0 | 0.0 | 0.00 | 0.72 | 0.51 | 85 | 1018.4 |
| 20260503040557 | 52 | 0 | 0.0 | 0.0 | 0.00 | 0.72 | 0.51 | 88 | 1018.4 |
| 20260503040059 | 52 | 0 | 0.0 | 0.0 | 0.00 | 0.72 | 0.51 | 86 | 1018.5 |
| 20260503035557 | 52 | 0 | 0.0 | 0.0 | 0.00 | 0.90 | 0.51 | 83 | 1018.5 |
| 20260503035059 | 52 | 0 | 0.0 | 0.0 | 0.00 | 0.90 | 0.51 | 81 | 1018.5 |
| 20260503034607 | 53 | 0 | 0.0 | 0.0 | 0.00 | 0.90 | 0.51 | 79 | 1018.3 |
| 20260503034100 | 53 | 0 | 0.0 | 0.0 | 0.00 | 0.90 | 0.51 | 81 | 1018.4 |
| 20260503033557 | 53 | 0 | 0.0 | 0.0 | 0.00 | 0.90 | 0.51 | 77 | 1018.3 |
| 20260503033101 | 53 | 0 | 0.0 | 0.0 | 0.00 | 0.90 | 0.51 | 76 | 1018.2 |
| 20260503032557 | 54 | 0 | 0.0 | 1.0 | 0.00 | 0.90 | 0.51 | 79 | 1018.3 |
| 20260503032057 | 54 | 0 | 0.0 | 1.0 | 0.00 | 0.90 | 0.51 | 79 | 1018.3 |
| 20260503031557 | 54 | 0 | 0.0 | 0.0 | 0.00 | 0.90 | 0.51 | 74 | 1018.2 |
| 20260503031058 | 54 | 0 | 0.0 | 0.0 | 0.00 | 0.90 | 0.51 | 78 | 1018.2 |
| 20260503030558 | 53 | 0 | 0.0 | 0.0 | 0.00 | 0.90 | 0.51 | 81 | 1018.0 |
| 20260503030057 | 53 | 0 | 0.0 | 0.0 | 0.00 | 0.90 | 0.51 | 84 | 1018.0 |
| 20260503025557 | 52 | 0 | 0.0 | 0.0 | 0.00 | 1.04 | 0.51 | 81 | 1018.0 |
| 20260503025057 | 53 | 0 | 0.0 | 0.0 | 0.00 | 1.04 | 0.51 | 82 | 1017.9 |
| 20260503024600 | 53 | 0 | 0.0 | 0.0 | 0.00 | 1.04 | 0.51 | 78 | 1017.9 |
| 20260503024058 | 53 | 0 | 0.0 | 0.0 | 0.00 | 1.04 | 0.51 | 81 | 1017.8 |
| 20260503023558 | 53 | 0 | 0.0 | 0.0 | 0.00 | 1.04 | 0.51 | 77 | 1017.8 |
| 20260503023056 | 54 | 0 | 0.0 | 0.0 | 0.00 | 1.04 | 0.51 | 76 | 1017.8 |
| 20260503022557 | 54 | 0 | 0.0 | 0.0 | 0.00 | 1.04 | 0.51 | 79 | 1017.7 |
| 20260503022100 | 54 | 0 | 0.0 | 0.0 | 0.00 | 1.04 | 0.51 | 78 | 1017.6 |
| 20260503021555 | 54 | 0 | 0.0 | 0.0 | 0.00 | 1.04 | 0.51 | 77 | 1017.5 |
| 20260503021057 | 53 | 0 | 0.0 | 0.0 | 0.00 | 1.04 | 0.51 | 78 | 1017.5 |
| 20260503020557 | 54 | 0 | 0.0 | 0.0 | 0.00 | 1.04 | 0.51 | 82 | 1017.5 |
| 20260503020054 | 54 | 0 | 0.0 | 0.0 | 0.00 | 1.04 | 0.51 | 77 | 1017.4 |
| 20260503015555 | 54 | 0 | 0.0 | 0.0 | 0.00 | 1.16 | 0.51 | 75 | 1017.4 |
| 20260503015058 | 55 | 0 | 0.0 | 0.0 | 0.00 | 1.16 | 0.51 | 75 | 1017.3 |
| 20260503014619 | 55 | 0 | 0.0 | 0.0 | 0.00 | 1.16 | 0.51 | 72 | 1017.2 |
| 20260503014058 | 55 | 0 | 0.0 | 0.0 | 0.00 | 1.16 | 0.51 | 75 | 1017.1 |
| 20260503013558 | 56 | 0 | 0.0 | 0.0 | 0.00 | 1.16 | 0.51 | 73 | 1017.1 |
| 20260503013057 | 56 | 0 | 0.0 | 0.0 | 0.00 | 1.16 | 0.51 | 72 | 1017.1 |
| 20260503012558 | 57 | 0 | 0.0 | 0.0 | 0.00 | 1.16 | 0.51 | 75 | 1016.9 |
| 20260503012058 | 57 | 0 | 0.0 | 0.0 | 0.00 | 1.16 | 0.51 | 77 | 1016.8 |
| 20260503011557 | 57 | 0 | 0.0 | 0.0 | 0.00 | 1.16 | 0.51 | 69 | 1016.7 |
| 20260503011057 | 58 | 0 | 0.0 | 0.0 | 0.00 | 1.16 | 0.51 | 67 | 1016.7 |
| 20260503010558 | 59 | 314 | 0.0 | 0.0 | 0.00 | 1.16 | 0.51 | 66 | 1016.7 |
| 20260503010054 | 59 | 0 | 0.0 | 0.0 | 0.00 | 1.16 | 0.51 | 69 | 1016.6 |
| 20260503005557 | 60 | 0 | 0.0 | 0.0 | 0.00 | 1.31 | 0.51 | 64 | 1016.5 |
| 20260503005100 | 60 | 0 | 0.0 | 0.0 | 0.00 | 1.31 | 0.51 | 62 | 1016.5 |
| 20260503004556 | 60 | 0 | 0.0 | 0.0 | 0.00 | 1.31 | 0.51 | 66 | 1016.5 |
| 20260503004057 | 61 | 0 | 0.0 | 0.0 | 0.00 | 1.31 | 0.51 | 63 | 1016.4 |
| 20260503003557 | 62 | 0 | 0.0 | 1.0 | 0.00 | 1.31 | 0.51 | 58 | 1016.3 |
| 20260503003058 | 63 | 0 | 0.0 | 1.0 | 0.00 | 1.31 | 0.51 | 58 | 1016.1 |
| 20260503002557 | 63 | 341 | 0.0 | 1.0 | 0.00 | 1.31 | 0.51 | 53 | 1016.0 |
| 20260503002057 | 64 | 340 | 0.0 | 1.0 | 0.00 | 1.31 | 0.51 | 54 | 1015.9 |
| 20260503001555 | 64 | 345 | 0.0 | 2.0 | 0.00 | 1.31 | 0.51 | 51 | 1015.8 |
| 20260503001058 | 65 | 0 | 0.0 | 2.0 | 0.00 | 1.31 | 0.51 | 53 | 1015.7 |
| 20260503000557 | 65 | 342 | 1.0 | 2.0 | 0.00 | 1.31 | 0.51 | 49 | 1015.6 |
| 20260503000055 | 65 | 23 | 0.0 | 2.0 | 0.00 | 1.31 | 0.51 | 49 | 1015.6 |
| 20260502235557 | 66 | 0 | 0.0 | 2.0 | 0.00 | 1.53 | 0.51 | 49 | 1015.4 |
| 20260502235057 | 66 | 345 | 0.0 | 3.0 | 0.00 | 1.53 | 0.51 | 51 | 1015.4 |
| 20260502234555 | 66 | 350 | 1.0 | 3.0 | 0.00 | 1.53 | 0.51 | 47 | 1015.2 |
| 20260502234058 | 66 | 347 | 1.0 | 3.0 | 0.00 | 1.53 | 0.51 | 49 | 1015.1 |
| 20260502233558 | 67 | 0 | 1.0 | 6.0 | 0.00 | 1.53 | 0.51 | 49 | 1015.0 |
| 20260502233103 | 67 | 358 | 2.0 | 6.0 | 0.00 | 1.53 | 0.51 | 47 | 1014.9 |
| 20260502232554 | 67 | 18 | 2.0 | 6.0 | 0.00 | 1.53 | 0.51 | 47 | 1014.9 |
| 20260502232058 | 67 | 322 | 3.0 | 6.0 | 0.00 | 1.53 | 0.51 | 46 | 1014.9 |
| 20260502231606 | 68 | 314 | 2.0 | 5.0 | 0.00 | 1.53 | 0.51 | 46 | 1014.8 |
| 20260502231058 | 68 | 328 | 2.0 | 6.0 | 0.00 | 1.53 | 0.51 | 47 | 1014.9 |
| 20260502230558 | 69 | 356 | 2.0 | 6.0 | 0.00 | 1.53 | 0.51 | 46 | 1014.8 |
| 20260502230058 | 69 | 322 | 2.0 | 6.0 | 0.00 | 1.53 | 0.51 | 44 | 1014.7 |
| 20260502225558 | 69 | 330 | 3.0 | 6.0 | 0.00 | 1.70 | 0.51 | 43 | 1014.7 |
| 20260502225057 | 70 | 355 | 2.0 | 5.0 | 0.00 | 1.70 | 0.51 | 44 | 1014.7 |
| 20260502224555 | 70 | 314 | 1.0 | 5.0 | 0.00 | 1.70 | 0.51 | 43 | 1014.6 |
| 20260502224059 | 70 | 281 | 2.0 | 7.0 | 0.00 | 1.70 | 0.51 | 39 | 1014.7 |
| 20260502223558 | 70 | 304 | 4.0 | 7.0 | 0.00 | 1.70 | 0.51 | 40 | 1014.4 |
| 20260502223057 | 70 | 6 | 2.0 | 7.0 | 0.00 | 1.70 | 0.51 | 42 | 1014.4 |
| 20260502222559 | 70 | 3 | 2.0 | 5.0 | 0.00 | 1.70 | 0.51 | 45 | 1014.3 |
| 20260502222058 | 70 | 318 | 2.0 | 8.0 | 0.00 | 1.70 | 0.51 | 46 | 1014.2 |